This demonstration page uses our WeatherBlox Daily Observations layout. Learn more.

Left ArrowRight Arrow

Hourly Observations for August 16, 2020

Temp ( °F °C ) Dew Point ( °F °C ) Humidity (%) Winds ( mph kmh ) Pressure ( in mb ) Visibility ( mi km ) Precip ( " mm )
12:52 am 00:52 Clear 70 21.1 64 17.8 82 82 NNE 7 11 30.03 1017 10 16 0.00 0.00
1:52 am 01:52 Clear 67 19.4 62 16.7 84 84 Calm 30.04 1017 10 16 0.00 0.00
2:52 am 02:52 Clear 65 18.3 63 17.2 93 93 Calm 30.04 1017 10 16 0.00 0.00
3:52 am 03:52 Clear 64 17.8 61 16.1 90 90 N 6 9 30.04 1017 10 16 0.00 0.00
4:52 am 04:52 Clear 61 16.1 59 15 93 93 Calm 30.06 1018 10 16 0.00 0.00
5:52 am 05:52 Clear 60 15.6 58 14.4 93 93 Calm 30.07 1018 10 16 0.00 0.00
6:14 am 06:14 Clear with Nearby Thunderstorms 60 15.6 57 13.9 90 90 Calm 30.10 1019 10 16 0.00 0.00
6:29 am 06:29 Clear 60 15.6 58 14.4 93 93 Calm 30.10 1019 10 16 0.00 0.00
6:52 am 06:52 Sunny 60 15.6 59 15 96 96 Calm 30.09 1019 10 16 0.00 0.00
7:52 am 07:52 Sunny 65 18.3 62 16.7 90 90 Calm 30.11 1020 10 16 0.00 0.00
8:52 am 08:52 Sunny 71 21.7 58 14.4 63 63 E 8 13 30.10 1019 10 16 0.00 0.00
9:52 am 09:52 Sunny 76 24.4 58 14.4 54 54 NE 6 9 30.10 1019 10 16 0.00 0.00
10:52 am 10:52 Sunny 80 26.7 54 12.2 41 41 ENE 8 13 30.09 1019 10 16 0.00 0.00
11:52 am 11:52 Sunny 83 28.3 52 11.1 34 34 NNE 7 11 30.11 1020 10 16 0.00 0.00
12:52 pm 12:52 Sunny 83 28.3 54 12.2 37 37 ENE 6 9 30.10 1019 10 16 0.00 0.00
1:52 pm 13:52 Sunny 86 30 58 14.4 39 39 NE 9 15 30.11 1020 10 16 0.00 0.00
2:52 pm 14:52 Sunny 87 30.6 54 12.2 32 32 NE 8 13 30.11 1020 10 16 0.00 0.00
3:52 pm 15:52 Sunny 86 30 53 11.7 32 32 VRB 5 7 30.09 1019 10 16 0.00 0.00
4:52 pm 16:52 Sunny 86 30 52 11.1 31 31 E 6 9 30.07 1018 10 16 0.00 0.00
5:52 pm 17:52 Sunny 85 29.4 54 12.2 35 35 ENE 7 11 30.06 1018 10 16 0.00 0.00
6:52 pm 18:52 Sunny 84 28.9 55 12.8 37 37 E 9 15 30.03 1017 10 16 0.00 0.00
7:52 pm 19:52 Sunny 80 26.7 53 11.7 39 39 E 6 9 30.02 1017 10 16 0.00 0.00
8:52 pm 20:52 Clear 73 22.8 56 13.3 55 55 Calm 30.06 1018 10 16 0.00 0.00
9:52 pm 21:52 Clear 71 21.7 56 13.3 59 59 ESE 5 7 30.08 1019 10 16 0.00 0.00
10:52 pm 22:52 Clear 71 21.7 56 13.3 59 59 ESE 3 6 30.09 1019 10 16 0.00 0.00
11:52 pm 23:52 Clear 68 20 57 13.9 68 68 SSE 3 6 30.12 1020 10 16 0.00 0.00

Powered by AerisWeather